ASTRA 1KR

Last updated on Aug. 5, 2020, 5:33 a.m. UTC

1 29055U 06012A   20217.79702139  .00000103  00000-0  00000-0 0  9994
2 29055   0.0199 253.4187 0003842 285.4842  81.0193  1.00269207 24243
UTC
Height (km)
Latitude
Longitude
Inclination
Orbital Period
UTC large
Height (km)
Speed (km/s)
/
Latitude / Longitude
Inclination (degrees)
Orbital Period (minutes)
Azimuth
Elevation
Range (km)
Doppler Factor
iOS Compass Heading
iOS Angle

Next 30 passes for location: Hong Kong

Rise time Rise Azimuth (degrees) Set time Set Azimuth (degrees) Duration Max altitude (degrees)

No matching passes for this satellites